Location: Anuling
(14.1239°N, 120.8922°E)
Time: 05:00:51
(UTC+00:00)

Resurs 1-3 - Visible Passes

Search period start: 19 April 2026 00:00
Search period end: 29 April 2026 00:00
Orbit: 613 x 614 km, 97.7° (Epoch: 18 April)

Date Brightness Start Highest point End Pass type
(mag) Time Alt. Az. Time Alt. Az. Time Alt. Az.
19 Apr 4.9 10:58:29 10° S 11:02:30 40° W 11:06:32 10° NNW visible
20 Apr 5.9 11:14:15 10° SSW 11:17:45 25° W 11:21:16 10° NW visible
21 Apr 6.5 11:30:31 10° SW 11:33:02 15° W 11:35:34 10° WNW visible
24 Apr 3.7 10:38:34 10° S 10:42:51 79° WSW 10:47:08 10° NNW visible
25 Apr 4.7 10:53:59 10° S 10:58:05 46° W 11:02:11 10° NNW visible
26 Apr 5.6 11:09:40 10° SSW 11:13:20 28° W 11:17:01 10° NW visible
27 Apr 6.4 11:25:45 10° SW 11:28:36 17° W 11:31:26 10° WNW visible
28 Apr 6.8 11:43:08 10° WSW 11:43:51 10° W 11:44:35 10° W visible
